TimeEST,TemperatureF,Dew PointF,Humidity,Sea Level PressureIn,VisibilityMPH,Wind Direction,Wind SpeedMPH,Gust SpeedMPH,PrecipitationIn,Events,Conditions,WindDirDegrees,DateUTC
12:29 AM,28.4,19.4,69,30.06,10.0,North,8.1,-,N/A,,Overcast,10,2013-03-02 05:29:00
12:35 AM,28.4,19.4,69,30.06,10.0,North,6.9,-,N/A,Snow,Light Snow,350,2013-03-02 05:35:00
12:45 AM,28.4,19.4,69,30.06,10.0,North,9.2,-,N/A,Snow,Light Snow,10,2013-03-02 05:45:00
12:55 AM,28.0,19.4,70,30.06,10.0,North,6.9,-,0.00,,Overcast,10,2013-03-02 05:55:00
1:55 AM,27.3,18.5,69,30.07,10.0,NE,6.9,-,N/A,,Overcast,40,2013-03-02 06:55:00
2:55 AM,27.3,18.5,69,30.06,10.0,NNE,8.1,-,N/A,,Overcast,20,2013-03-02 07:55:00
3:55 AM,27.1,18.5,70,30.05,10.0,North,9.2,-,N/A,,Overcast,350,2013-03-02 08:55:00
4:55 AM,27.0,18.1,69,30.05,10.0,NNW,6.9,-,N/A,,Overcast,340,2013-03-02 09:55:00
5:27 AM,26.6,17.6,69,30.05,10.0,North,6.9,-,N/A,Snow,Light Snow,350,2013-03-02 10:27:00
5:55 AM,26.8,18.7,72,30.05,10.0,NNW,8.1,-,0.00,Snow,Light Snow,340,2013-03-02 10:55:00
6:55 AM,26.6,18.7,72,30.06,10.0,NNW,6.9,-,0.00,Snow,Light Snow,340,2013-03-02 11:55:00
7:55 AM,26.6,18.0,70,30.07,10.0,NNW,10.4,-,0.00,,Overcast,340,2013-03-02 12:55:00
8:06 AM,26.6,17.6,69,30.07,10.0,North,9.2,-,N/A,Snow,Light Snow,350,2013-03-02 13:06:00
8:55 AM,25.9,18.3,73,30.08,10.0,NNW,8.1,-,0.00,Snow,Light Snow,340,2013-03-02 13:55:00
9:29 AM,26.6,17.6,69,30.09,7.0,NNW,8.1,-,N/A,Snow,Light Snow,330,2013-03-02 14:29:00
9:55 AM,26.1,18.1,72,30.08,10.0,North,10.4,-,0.00,Snow,Light Snow,350,2013-03-02 14:55:00
10:55 AM,26.8,17.4,68,30.09,7.0,North,6.9,-,0.00,Snow,Light Snow,350,2013-03-02 15:55:00
11:23 AM,28.4,17.6,64,30.08,10.0,NNW,11.5,-,N/A,Snow,Light Snow,330,2013-03-02 16:23:00
11:55 AM,28.4,17.8,64,30.09,10.0,North,11.5,-,0.00,Snow,Light Snow,350,2013-03-02 16:55:00
12:55 PM,28.0,17.6,65,30.07,10.0,NNW,9.2,-,0.00,,Overcast,340,2013-03-02 17:55:00
1:25 PM,28.4,19.4,69,30.06,10.0,NW,9.2,-,N/A,,Overcast,310,2013-03-02 18:25:00
1:46 PM,26.6,17.6,69,30.07,10.0,NW,8.1,-,N/A,Rain,Light Freezing Rain,320,2013-03-02 18:46:00
1:47 PM,26.6,17.6,69,30.07,10.0,NW,9.2,-,N/A,Rain,Light Freezing Rain,310,2013-03-02 18:47:00
1:55 PM,27.3,18.3,69,30.06,10.0,NNW,8.1,-,0.00,Rain,Light Freezing Rain,340,2013-03-02 18:55:00
2:15 PM,28.4,17.6,64,30.06,10.0,NW,8.1,-,N/A,,Overcast,310,2013-03-02 19:15:00
2:18 PM,28.4,17.6,64,30.06,10.0,NW,8.1,-,N/A,,Overcast,310,2013-03-02 19:18:00
2:27 PM,28.4,17.6,64,30.06,10.0,NW,9.2,-,N/A,,Overcast,310,2013-03-02 19:27:00
2:37 PM,28.4,17.6,64,30.06,10.0,NW,9.2,-,N/A,,Overcast,320,2013-03-02 19:37:00
2:46 PM,28.4,17.6,64,30.06,10.0,NW,9.2,-,N/A,,Overcast,310,2013-03-02 19:46:00
2:55 PM,28.0,17.4,64,30.06,10.0,NW,9.2,-,0.00,,Overcast,310,2013-03-02 19:55:00
3:21 PM,28.4,17.6,64,30.06,10.0,NW,8.1,-,N/A,Snow,Light Snow,320,2013-03-02 20:21:00
3:55 PM,27.9,18.1,67,30.06,10.0,NW,10.4,-,0.00,,Overcast,320,2013-03-02 20:55:00
4:05 PM,28.4,17.6,64,30.06,10.0,NW,8.1,-,N/A,Snow,Light Snow,320,2013-03-02 21:05:00
4:55 PM,27.7,17.8,66,30.07,10.0,NW,6.9,-,0.00,Snow,Light Snow,310,2013-03-02 21:55:00
5:55 PM,27.3,16.5,64,30.08,10.0,NNW,8.1,-,0.00,,Overcast,340,2013-03-02 22:55:00
6:55 PM,27.3,17.1,65,30.09,10.0,NW,10.4,-,0.00,Snow,Light Snow,320,2013-03-02 23:55:00
7:55 PM,27.3,16.3,63,30.09,10.0,NNW,4.6,-,0.00,,Overcast,330,2013-03-03 00:55:00
8:55 PM,27.1,17.2,66,30.09,10.0,NW,5.8,-,N/A,,Overcast,310,2013-03-03 01:55:00
9:55 PM,27.1,17.4,67,30.09,10.0,NNW,3.5,-,N/A,,Overcast,330,2013-03-03 02:55:00
10:55 PM,27.0,17.2,67,30.09,10.0,NW,5.8,-,N/A,,Overcast,310,2013-03-03 03:55:00
11:55 PM,26.8,17.6,68,30.08,10.0,Calm,Calm,-,N/A,,Overcast,0,2013-03-03 04:55:00